Regional Weather Roundup
Issued by NWS

Home | Current Version | Previous Version | Graphics & Text | Print | Product List | Glossary On
Versions: 1 2 3 4 5 6 7 8 9 10 11 12 13 14 15 16 17 18 19 20 21 22 23 24 25 26 27 28
000
ASUS45 KTFX 270510
RWRMT
MONTANA REGIONAL WEATHER ROUNDUP
NATIONAL WEATHER SERVICE GREAT FALLS MT
1100 PM MDT MON JUN 26 2017

NOTE: "FAIR" INDICATES FEW OR NO CLOUDS BELOW 12000 FEET WITH NO
SIGNIFICANT WEATHER AND/OR OBSTRUCTIONS TO VISIBILITY.

MTZ001>007-043-270600-
WEST OF THE DIVIDE

CITY           SKY/WX    TMP DP  RH WIND       PRES   REMARKS
KALISPELL      CLOUDY    66  58  75 CALM      29.73S
MISSOULA       MOCLDY    76  44  32 SE12      29.84R
BUTTE          CLOUDY    64  52  64 SW7       30.01F
MULLAN PASS    CLOUDY    59  43  55 W12G25    30.03R
ANACONDA         N/A     70  43  37 W13       29.98R
DEER LODGE       N/A     70  46  43 CALM      29.97R
EUREKA           N/A     64  55  72 CALM      29.82R
HAMILTON         N/A     68  52  56 SE13      29.99R
$$

MTZ008-052>055-270600-
SOUTHWEST MONTANA

CITY           SKY/WX    TMP DP  RH WIND       PRES   REMARKS
BOZEMAN        LGT RAIN  76  43  30 W18G32    29.92R
DILLON         CLOUDY    66  47  50 SW10      30.03R
W YELLOWSTONE  CLOUDY    63  39  42 SW16G25   30.09R
ENNIS          MOCLDY    73  37  27 E12G21    30.02S
THREE FORKS      N/A     77  41  27 W10       29.91R
$$

MTZ009-010-012-014-046-048-049-054-270600-
EAST SLOPES AND CENTRAL MONTANA

CITY           SKY/WX    TMP DP  RH WIND       PRES   REMARKS
CUT BANK       CLOUDY    67  45  45 W13       29.76F
GREAT FALLS    CLOUDY    73  46  38 E10       29.78R
MALMSTROM AFB  CLOUDY    69  49  48 E6        29.77R
HELENA         CLOUDY    73  51  46 SW15G22   29.87R
CHOTEAU          N/A     70  50  49 SW5       29.80F
$$

MTZ011-013-016-021-045-047-050-051-270600-
NORTH CENTRAL MONTANA

CITY           SKY/WX    TMP DP  RH WIND       PRES   REMARKS
HAVRE          CLOUDY    62  53  72 SW7       29.69S
LEWISTOWN      CLOUDY    67  50  54 E5        29.79F
N BAR RANCH      N/A     70  43  37 W9        29.85F
CHINOOK          N/A     70  52  52 E3        29.68S
FORT BENTON      N/A    N/A N/A N/A MISG      29.75R
$$

MTZ017>020-022>027-061-062-270600-
NORTHEAST MONTANA

CITY           SKY/WX    TMP DP  RH WIND       PRES   REMARKS
GLASGOW        CLOUDY    79  40  24 SE6       29.73F
JORDAN           N/A     80  42  25 NE12      29.78F
SIDNEY         CLOUDY    72  41  32 S12       29.82F
WOLF POINT     CLOUDY    69  39  33 E3        29.76F
MALTA          CLEAR     75  46  35 SE17G26   29.67F
PLENTYWOOD       N/A     66  41  39 SE12      29.80F
POPLAR           N/A     73  39  29 SE12      29.77F
$$

MTZ028>42-056>058-270600-
SOUTHCENTRAL AND SOUTHEAST MONTANA

CITY           SKY/WX    TMP DP  RH WIND       PRES   REMARKS
BAKER          CLOUDY    68  38  33 SE25G37   29.88F
BILLINGS       PTCLDY    78  45  30 SW9       29.77F
LIVINGSTON     CLOUDY    74  43  32 NW25G40   29.89R
MILES CITY     CLOUDY    77  38  24 SE20G30   29.77F
BIG TIMBER     CLEAR     68  39  34 SW6       29.86S
FORSYTH          N/A     77  39  25 SE9       29.73F
ROUNDUP          N/A     79  40  24 S7        29.70F
$$

REGIONAL REPORTS...DAKOTAS

CITY           SKY/WX    TMP DP  RH WIND       PRES   REMARKS
WILLISTON      CLOUDY    71  43  36 S9        29.84F
MINOT          CLEAR     59  45  59 SE6       29.92S
DICKINSON      MOCLDY    64  36  35 S21G31    29.91F
BEACH            N/A     66  39  37 SE22G32   29.90F
CROSBY           N/A     66  43  42 S17G23    29.82F
TIOGA            N/A     66  39  37 S15G22    29.88F
WATFORD CITY     N/A     70  39  32 S14G22    29.86S
BISMARCK       CLOUDY    58  42  55 SE9       29.99F
GRAND FORKS    CLEAR     54  44  69 SE3       30.01F
FARGO          CLEAR     59  39  47 S6        30.05F
BUFFALO SD       N/A     65  40  39 SE21G26   29.88F
RAPID CITY     CLEAR     60  40  47 S10       30.00F
$$

REGIONAL REPORTS...WYOMING/IDAHO/WASHINGTON

CITY           SKY/WX    TMP DP  RH WIND       PRES   REMARKS
GILLETTE       CLEAR     71  40  32 S26G32    29.92F
SHERIDAN       CLEAR     62  51  67 S6        29.84F
BUFFALO WY     CLEAR     68  39  34 S12       29.95S
CODY           CLOUDY    70  37  29 S5        29.92S
YELLOWSTONE LA   N/A     55  41  59 CALM      30.17S
IDAHO FALLS    CLOUDY    75  46  35 NE3       29.93S
SALMON         CLOUDY   N/A N/A N/A NE23      29.90F
BOISE          PTCLDY    78  50  37 NW16      29.84R
SPOKANE        CLOUDY    67  58  72 S13G23    29.81S
$$

REGIONAL REPORTS...ALBERTA

CITY           SKY/WX    TMP DP  RH WIND       PRES   REMARKS
EDMONTON       PTCLDY    68  61  77 N5G17     29.47F
CALGARY        PTCLDY    72  43  35 SW10      29.64F
LETHBRIDGE     CLEAR     68  48  49 SW10      29.66F
MEDICINE HAT   CLEAR     70  54  56 S13       29.60F
MILK RIVER       N/A     64  48  55 SW6         N/A
ONEFOUR          N/A     70  48  46 CALM        N/A
$$

REGIONAL REPORTS...SASKATCHEWAN

CITY           SKY/WX    TMP DP  RH WIND       PRES   REMARKS
SWIFT CURRENT  PTCLDY    68  41  37 S16G22    29.65F
SASKATOON      PTCLDY    68  50  52 SE16      29.62F
CYPRESS HILLS    N/A     68  43  40 S7          N/A
VAL MARIE        N/A     75  41  29 S14         N/A
ROCKGLEN         N/A     66  34  30 S15G21      N/A
ASSINIBOIA       N/A     64  59  82 SE3         N/A
$$




USA.gov is the U.S. government's official web portal to all federal, state and local government web resources and services.